Location: Camargue
(43.5667°N, 4.5667°E)
Time: 11:47:30
(UTC+00:00)

Daily predictions for brighter satellites

Satellite Brightness Start Highest point End
(mag) Time Altitude Azimuth Time Altitude Azimuth Time Altitude Azimuth
Nadezhda 1 Rocket 4.4 16:27:11 10° SSW 16:33:32 74° W 16:39:58 10° N
Meteor 2-12 Rocket 4.5 16:29:19 10° N 16:35:28 70° E 16:41:33 10° SSE
Cosmos 1867 4.1 16:32:20 10° SW 16:37:41 61° NW 16:43:07 10° NNE
Cosmos 2218 Rocket 4.4 16:31:55 10° N 16:37:42 40° ENE 16:43:26 10° SE
Cosmos 2366 rocket 4.4 16:32:53 10° N 16:38:39 39° ENE 16:44:21 10° SE
Meteor 1-25 Rocket 4.5 16:34:03 10° N 16:39:30 48° ENE 16:44:59 10° SSE
ERS-2 3.9 16:37:29 10° ENE 16:39:39 15° E 16:41:48 10° SE
Envisat 3.0 16:36:26 10° SSE 16:41:30 82° ENE 16:46:37 10° NNW
Lacrosse 5 rocket 1.9 16:42:49 10° WSW 16:46:21 43° NW 16:49:49 10° NE
Cosmos 773 Rocket 4.1 16:42:20 10° S 16:47:29 59° ESE 16:52:41 10° NNE
SL-23 DEB 4.2 16:44:28 10° SW 16:47:46 55° SE 16:52:39 10° ENE
YAOGAN 6 2.5 16:47:00 10° SSE 16:50:38 83° ENE 16:54:14 10° N
Cosmos 1606 3.3 16:49:13 10° SSW 16:53:04 61° W 16:56:56 10° N
Cosmos 2297 3.8 16:49:19 10° NNW 16:55:02 88° WSW 17:00:46 10° SSE
AQUARIUS 4.2 16:51:23 10° SSE 16:55:46 57° ENE 17:00:12 10° N
FengYun 1-2 T 4.4 16:50:33 10° SE 16:55:48 47° ENE 17:01:04 10° N
SL-16 R/B 2.4 16:51:49 10° SSW 16:57:29 77° WNW 17:03:10 10° NNE
CZ-4B R/B 2.3 16:56:34 10° NE 16:59:15 26° E 17:01:59 10° SSE
Landsat 5 4.0 16:55:58 10° N 17:00:26 70° WNW 17:04:56 10° SSW
BREEZE-M DEB (TANK) 1.8 16:59:19 10° WSW 17:02:06 64° NNW 17:03:26 18° NE
USA 215 4.2 16:59:20 11° ENE 17:04:37 30° SE 17:10:13 10° S
SMAP 3.0 17:00:07 10° SSE 17:04:46 81° ENE 17:09:27 10° N
Cosmos 1500 4.5 17:03:50 10° NNE 17:06:41 20° ENE 17:09:32 10° ESE
Sich 1 4.2 17:04:36 10° NNW 17:08:48 46° W 17:12:55 10° SSW
YAOGAN 1 4.2 17:09:19 15° NE 17:09:19 15° NE 17:11:14 10° NNE
Cosmos 1656 Rocket 4.5 17:06:05 10° N 17:10:55 28° NE 17:15:41 10° ESE
CZ-4C R/B 4.4 17:07:58 10° N 17:11:24 41° WNW 17:14:47 10° SW
Cosmos 1151 Rocket 2.9 17:07:11 10° S 17:11:28 87° E 17:15:45 10° N
Cosmos 1470 Rocket 3.6 17:09:31 10° N 17:13:47 55° E 17:18:01 10° SSE
CSL-04 DEB 4.5 17:11:56 10° NNE 17:16:07 89° ESE 17:20:23 10° SSW
Cosmos 1515 Rocket 3.7 17:15:14 10° S 17:19:28 53° E 17:23:47 10° NNE
Cosmos 864 Rocket 4.4 17:13:24 10° N 17:19:44 78° E 17:25:57 10° SSE
CZ-2C R/B 3.8 17:16:40 10° ESE 17:20:42 25° ENE 17:24:37 10° NNE
SL-8 Rocket 4.2 17:16:40 10° N 17:22:56 78° W 17:29:13 10° S
Cosmos 482 Debris 2.5 17:21:22 10° WNW 17:23:09 75° SW 17:23:46 37° SE
Cosmos 1238 Rocket 4.1 17:22:28 10° NNE 17:25:56 25° ENE 17:29:55 10° SE
COSMO-SKYMED 1 2.9 17:23:06 11° NNE 17:26:59 42° E 17:31:05 10° S
Cosmos 1689 Rocket 3.9 17:29:02 17° SE 17:29:02 17° SE 17:30:13 10° SSE
USA 281 3.8 17:22:07 10° ESE 17:27:52 34° NE 17:33:38 10° N
X-37B 0.5 17:25:01 10° WSW 17:28:12 90° N 17:29:28 34° ENE
Nadezhda 3 Rocket 4.4 17:22:59 10° SSE 17:28:52 41° E 17:34:46 10° NNE
SAR-Lupe-4 4.1 17:29:13 26° NE 17:30:32 36° E 17:33:51 10° SSE
Meteor 2-6 Rocket 4.5 17:26:39 10° SSE 17:31:53 43° E 17:37:01 10° NNE
Cosmos 2228 Rocket 3.7 17:28:00 10° SSE 17:32:07 35° E 17:34:29 21° NE
Helios 1A Rocket 4.2 17:33:25 22° NE 17:33:25 22° NE 17:35:31 10° N
USA 81 4.3 17:27:11 10° N 17:32:28 72° W 17:37:43 10° S
Meteor 1-4 Rocket 2.7 17:29:52 10° SSW 17:33:27 71° W 17:37:00 10° N
H-2A R/B 3.0 17:35:18 25° ENE 17:35:35 25° ENE 17:39:40 10° NNE
Cosmos 1812 3.3 17:32:28 10° SSE 17:35:57 34° E 17:36:35 32° ENE
USA 267 4.0 17:34:11 21° ENE 17:37:38 35° NNE 17:43:26 10° NW
Cosmos 1939 Rocket 2.7 17:34:10 10° SSE 17:38:00 63° ENE 17:41:54 10° N
Cosmos 1821 Rocket 4.1 17:32:34 10° N 17:38:38 50° ENE 17:44:45 10° SSE
Cosmos 1328 Rocket 4.3 17:35:14 10° SSW 17:39:26 52° W 17:43:42 10° N
CZ-4 R/B 2.4 17:41:27 27° NE 17:41:27 27° NE 17:43:56 10° N
Meteor 1-11 Rocket 4.4 17:36:24 10° N 17:41:35 33° ENE 17:46:49 10° SE
BREEZE-M DEB (TANK) 3.1 17:38:46 10° SW 17:42:17 28° SSE 17:42:53 26° SE
PSLV R/B 4.3 17:42:20 34° ENE 17:43:20 40° E 17:47:09 10° S
Cosmos 44 Rocket 3.9 17:38:31 10° NNW 17:43:22 39° NE 17:45:09 30° E
Cosmos 1933 Rocket 3.5 17:39:24 10° N 17:43:53 80° E 17:48:19 10° S
IRS-1C Rocket 4.0 17:39:08 10° SSE 17:44:20 63° ENE 17:49:34 10° N
Cosmos 1602 4.4 17:42:32 10° NNW 17:46:23 57° W 17:50:11 10° S
SAR-Lupe-1 4.1 17:46:35 41° NE 17:47:32 56° E 17:51:03 10° S
Lacrosse 4 Rocket 3.1 17:45:21 10° SSE 17:46:59 18° SE 17:46:59 18° SE
Cosmos 1680 Rocket 3.9 17:44:00 10° S 17:48:52 39° ESE 17:50:18 33° ENE
SKYMED 3 4.4 17:47:24 15° NNE 17:51:04 77° ESE 17:55:23 10° S
SL-24 R/B 3.6 17:49:33 33° NNE 17:51:06 66° E 17:54:42 10° S
Cosmos 1603 3.6 17:47:25 10° SSW 17:53:02 82° ESE 17:56:56 21° NNE
CZ-2D R/B 3.1 17:51:04 10° SSE 17:54:52 69° ENE 17:58:42 10° N
Cosmos 1943 3.1 17:50:46 10° SSW 17:56:24 77° ESE 17:59:58 24° NNE
H-2A R/B 4.3 17:55:11 10° NNW 17:58:31 23° WNW 18:01:54 10° WSW
Cosmos 2369 Rocket 2.4 17:54:05 10° NNW 17:59:46 74° WSW 18:05:23 10° SSE
Cosmos 1943 Rocket 3.4 17:55:40 10° NW 18:00:54 44° WSW 18:06:10 10° S
Okean O Rocket 3.7 17:57:58 10° SSW 18:01:45 29° W 18:05:34 10° NW
Cosmos 1782 4.2 17:58:11 10° SSW 18:01:53 38° WNW 18:05:38 10° N
Meteor 1-5 Rocket 4.2 17:56:14 10° N 18:02:10 75° E 18:07:52 10° SSE
Okean-O 2.6 17:58:51 10° SSE 18:03:12 60° ENE 18:07:34 10° N
Cosmos 1461 3.8 17:59:02 10° S 18:02:44 35° SE 18:02:44 35° SE
CENTAUR R/B 2.7 18:01:05 10° S 18:06:30 45° ESE 18:07:44 40° E
ISS -1.9 18:04:06 10° NW 18:05:55 22° NNW 18:05:55 22° NNW
Cosmos 2112 Rocket 4.1 18:04:19 10° S 18:09:24 51° ESE 18:09:54 49° E
ERS-2 3.5 18:10:45 16° N 18:13:21 37° WNW 18:16:44 10° SW
NOSS 3-2 (C) 3.5 18:09:18 10° S 18:14:36 49° ESE 18:15:10 47° E
SKYMED 2 4.1 18:11:43 16° N 18:15:06 58° WNW 18:19:21 10° SSW
Cosmos 1869 Rocket 3.7 18:14:08 10° N 18:22:43 12° SSE 18:23:05 10° SSE
BREEZE-M DEB (TANK) 3.0 18:11:14 10° WSW 18:19:41 85° SSE 18:19:59 76° E
Meteor 1-27 Rocket 3.7 18:15:11 10° S 18:20:11 54° ESE 18:20:11 54° ESE
Meteor 1-10 Rocket 4.2 18:19:21 10° S 18:24:59 84° W 18:28:49 21° N
Lacrosse 5 rocket 3.6 18:24:32 10° NW 18:25:53 13° NNW 18:25:53 13° NNW
FALCON 9 R/B 3.6 18:28:23 10° SW 18:28:30 11° SSW 18:28:30 11° SSW
CZ-4B R/B 4.2 18:29:34 11° NNW 18:31:18 15° WNW 18:33:11 10° WSW
Gblst 52 Del rocket 4.5 18:31:18 10° SW 18:37:18 56° SSE 18:37:18 56° SSE
NOSS 3-2 (A) 3.5 18:34:19 10° SW 18:39:55 71° NW 18:41:27 51° NNE
YAOGAN 1 4.1 18:46:29 29° NNW 18:46:29 29° NNW 18:48:43 10° NNW
Cosmos 1535 Rocket 4.3 18:40:00 10° N 18:46:09 87° E 18:52:16 10° S
USA 215 3.2 18:46:42 60° NE 18:48:02 81° NW 18:54:34 10° WSW
MOS 1 Rocket 4.2 18:52:44 35° NNW 18:54:47 56° WNW 19:00:00 10° SSW
USA 238 DEB 3.9 18:52:47 10° SW 18:59:18 64° NW 19:00:35 54° N
USA 238 3.9 18:52:52 10° SW 18:59:23 65° NW 19:00:39 54° N
CZ-2C R/B 4.2 18:55:46 10° SSW 19:00:24 38° W 19:04:55 10° NNW
Cosmos 1934 Rocket 4.4 19:01:48 10° NNW 19:08:03 61° W 19:14:13 10° S
USA 281 3.8 19:05:43 10° S 19:12:06 53° WSW 19:18:31 10° NNW
H-2A R/B 3.2 19:15:56 39° WNW 19:15:56 39° WNW 19:19:41 10° NNW
CZ-4 R/B 4.2 19:17:28 15° NW 19:17:28 15° NW 19:18:29 10° NW
USA 267 3.6 19:21:32 58° NW 19:21:32 58° NW 19:26:40 10° NW
Lacrosse 4 Rocket 4.4 19:23:05 10° WSW 19:23:21 12° WSW 19:23:21 12° WSW
CENTAUR R/B 4.0 19:51:31 10° WSW 19:54:58 31° W 19:54:58 31° W
